Change the Weather History Date:

Thursday, October 25, 2012

  Actual Average Record
Temperature  
Mean Temperature 70 °F -  
Max Temperature 120 °F 70 °F 120 °F (2012)
Min Temperature 55 °F 49 °F 36 °F (2006)
Cooling Degree Days 4    
Growing Degree Days 20 (Base 50)    
Moisture  
Dew Point 59 °F    
Average Humidity 77    
Maximum Humidity 93    
Minimum Humidity 48    
Precipitation  
Precipitation 0.00 in - - ()
Sea Level Pressure  
Sea Level Pressure 30.14 in    
Wind  
Wind Speed 1 mph ()    
Max Wind Speed 10 mph    
Max Gust Speed -    
Visibility 5.4 miles    
Events Fog    
Averages and records for this station are not official NWS values.
T = Trace of Precipitation, MM = Missing Value Source: Averaged Metar Reports

Daily Weather History Graph

Daily Weather History Graph

Search for Another Location

Airport or City:

Trip Planner

Search our weather history database for the weather conditions in past years. The results will help you decide how hot, cold, wet, or windy it might be!

Date:

Astronomy

Oct. 25, 2012 Rise Set
Actual Time 7:22 AM EDT 6:20 PM EDT
Civil Twilight 6:56 AM EDT 6:45 PM EDT
Nautical Twilight 6:26 AM EDT 7:15 PM EDT
Astronomical Twilight 5:57 AM EDT 7:44 PM EDT
Moon 3:58 PM EDT (10/25) 3:25 AM EDT (10/25)
Length of Visible Light 11h 49m
Length of Day
10h 57m
Waxing Gibbous, 84% of the Moon is Illuminated
Oct 25
Waxing Gibbous
Oct 29
Full
Nov 6
Last Quarter
Nov 13
New
Nov 20
First Quarter

Hourly Weather History & Observations

Time (EDT) Temp. Heat Index Dew Point Humidity Pressure Visibility Wind Dir Wind Speed Gust Speed Precip Events Conditions
12:01 AM - - - N/A% 30.15 in 0.2 mi Calm Calm - N/A   Unknown
12:15 AM - - - N/A% 30.15 in 9.0 mi Calm Calm - N/A   Overcast
12:22 AM - - - N/A% 30.15 in 1.5 mi Calm Calm - N/A   Overcast
12:31 AM - - - N/A% 30.15 in 1.8 mi Calm Calm - N/A   Mostly Cloudy
12:33 AM - - - N/A% 30.15 in 4.0 mi Calm Calm - N/A   Mostly Cloudy
12:45 AM - - - N/A% 30.15 in 1.8 mi Calm Calm - N/A   Mostly Cloudy
12:52 AM - - - N/A% 30.15 in 3.0 mi Calm Calm - N/A   Partly Cloudy
12:54 AM 60.1 °F - 55.9 °F 86% 30.14 in 6.0 mi Calm Calm - N/A   Partly Cloudy
1:41 AM - - - N/A% 30.15 in 0.2 mi Calm Calm - N/A Fog Fog
1:54 AM 59.0 °F - 55.9 °F 90% 30.14 in 6.0 mi Calm Calm - N/A   Partly Cloudy
2:54 AM 59.0 °F - 55.0 °F 87% 30.12 in 6.0 mi Calm Calm - N/A   Partly Cloudy
3:54 AM 59.0 °F - 55.0 °F 87% 30.11 in 6.0 mi Calm Calm - N/A   Partly Cloudy
4:54 AM 55.9 °F - 54.0 °F 93% 30.12 in 6.0 mi Calm Calm - N/A   Partly Cloudy
5:54 AM 57.9 °F - 55.9 °F 93% 30.14 in 6.0 mi Calm Calm - N/A   Partly Cloudy
5:58 AM - - - N/A% 30.14 in 1.8 mi Calm Calm - N/A   Overcast
6:08 AM 57.2 °F - 53.6 °F 88% 30.14 in 3.0 mi Calm Calm - N/A   Scattered Clouds
6:10 AM 57.2 °F - 53.6 °F 88% 30.14 in 1.5 mi Calm Calm - N/A   Scattered Clouds
6:54 AM 57.9 °F - 54.0 °F 87% 30.14 in 1.5 mi Calm Calm - N/A   Scattered Clouds
7:01 AM 57.2 °F - 53.6 °F 88% 30.15 in 0.5 mi Calm Calm - N/A Fog Patches of Fog
7:28 AM 57.2 °F - 53.6 °F 88% 30.15 in 0.5 mi Calm Calm - N/A Fog Patches of Fog
7:54 AM 57.0 °F - 53.1 °F 87% 30.15 in 1.5 mi Calm Calm - N/A   Scattered Clouds
8:01 AM - - - N/A% 30.16 in 0.2 mi Calm Calm - N/A   Mist
8:21 AM 60.8 °F - 57.2 °F 88% 30.16 in 1.0 mi Calm Calm - N/A   Partly Cloudy
8:42 AM 64.4 °F - 60.8 °F 88% 30.16 in 4.0 mi NNE 3.5 mph - N/A   Scattered Clouds
8:54 AM 67.1 °F - 63.0 °F 87% 30.16 in 5.0 mi NE 3.5 mph - N/A   Partly Cloudy
9:54 AM 75.4 °F - 64.9 °F 70% 30.17 in 7.0 mi Calm Calm - N/A   Partly Cloudy
10:54 AM 81.0 °F 82.6 °F 64.4 °F 57% 30.17 in 10.0 mi ENE 6.9 mph - N/A   Partly Cloudy
11:54 AM 81.0 °F 82.2 °F 63.1 °F 54% 30.16 in 7.0 mi NNE 6.9 mph - N/A   Scattered Clouds
12:54 PM 82.0 °F 83.1 °F 63.0 °F 52% 30.14 in 10.0 mi NNE 8.1 mph - N/A   Clear
1:54 PM 84.2 °F 85.0 °F 62.6 °F 48% 30.12 in 7.0 mi NE 8.1 mph - N/A   Scattered Clouds
2:54 PM 82.9 °F 83.7 °F 62.1 °F 49% 30.10 in 10.0 mi NE 10.4 mph - N/A   Scattered Clouds
3:54 PM 82.0 °F 82.7 °F 61.0 °F 49% 30.10 in 10.0 mi ENE 8.1 mph - N/A   Scattered Clouds
4:54 PM 80.1 °F 81.1 °F 61.0 °F 52% 30.10 in 10.0 mi ENE 6.9 mph - N/A   Scattered Clouds
5:54 PM 75.7 °F - 61.0 °F 60% 30.11 in 10.0 mi ENE 6.9 mph - N/A   Scattered Clouds
6:54 PM 71.1 °F - 61.0 °F 70% 30.12 in 10.0 mi ESE 3.5 mph - N/A   Clear
7:54 PM 68.0 °F - 62.1 °F 81% 30.12 in 10.0 mi Calm Calm - N/A   Clear
8:54 PM 66.0 °F - 63.0 °F 90% 30.11 in 10.0 mi Calm Calm - N/A   Clear
9:54 PM 63.0 °F - 61.0 °F 93% 30.11 in 10.0 mi Calm Calm - N/A   Clear
10:54 PM 66.9 °F - 63.0 °F 87% 30.09 in 10.0 mi ENE 9.2 mph - N/A   Clear
11:54 PM 68.9 °F - 64.0 °F 84% 30.09 in 6.0 mi NE 5.8 mph - N/A   Haze